EW4633 Weather Reports


time (UTC)temp
F
wind
direction
speed
knots
gust
knots
rain 1hr
in
rain 24hr
in
rain mn
in
humidity
%
barometer
mb
20260505101743 57 22 0.9 0.9 0.00 0.00 0.00 89 1005.3
20260505101459 57 22 0.0 0.9 0.00 0.00 0.00 88 1005.5
20260505101001 57 22 0.0 1.7 0.00 0.00 0.00 88 1005.7
20260505100239 57 22 0.0 1.7 0.00 0.00 0.00 88 1005.8
20260505095739 57 22 0.0 2.6 0.00 0.00 0.00 87 1006.1
20260505095238 57 348 0.9 5.2 0.00 0.00 0.00 87 1006.3
20260505094734 57 303 2.6 5.2 0.00 0.00 0.00 86 1006.2
20260505094718 58 326 2.6 8.7 0.00 0.00 0.00 86 1006.3
20260505093734 58 346 2.6 9.6 0.00 0.00 0.00 85 1006.3
20260505093233 59 316 2.6 9.6 0.00 0.00 0.00 84 1006.0
20260505092733 59 32 2.6 8.7 0.00 0.00 0.00 82 1006.0
20260505092233 60 18 2.6 8.7 0.00 0.00 0.00 81 1006.0
20260505091734 60 332 1.7 6.1 0.00 0.00 0.00 79 1005.9
20260505091232 61 12 2.6 6.1 0.00 0.00 0.00 78 1005.8
20260505090732 61 32 3.5 7.8 0.00 0.00 0.00 77 1005.6
20260505090233 61 323 2.6 7.8 0.00 0.00 0.00 76 1005.4
20260505085733 62 335 0.9 4.3 0.00 0.00 0.00 75 1005.0
20260505085233 62 50 2.6 11.3 0.00 0.00 0.00 74 1004.7
20260505084732 62 0 2.6 11.3 0.00 0.00 0.00 73 1004.9
20260505084232 63 343 0.9 3.5 0.00 0.00 0.00 68 1004.9
20260505083734 63 242 0.9 0.9 0.00 0.00 0.00 68 1004.4
20260505083234 63 242 0.0 0.9 0.00 0.00 0.00 69 1004.3
20260505082734 62 242 0.0 0.9 0.00 0.00 0.00 69 1004.2
20260505082234 62 242 0.0 0.0 0.00 0.00 0.00 69 1004.2
20260505081729 62 242 0.0 0.9 0.00 0.00 0.00 69 1003.9
20260505081230 62 242 0.0 0.9 0.00 0.00 0.00 69 1003.8
20260505080730 63 242 0.0 0.9 0.00 0.00 0.00 69 1003.6
20260505080229 63 242 0.0 0.9 0.00 0.00 0.00 69 1003.4
20260505075729 63 242 0.0 0.9 0.00 0.00 0.00 69 1003.4
20260505075228 63 242 0.0 0.9 0.00 0.00 0.00 68 1003.6
20260505074729 64 242 0.0 0.9 0.00 0.00 0.00 67 1003.7
20260505074230 64 242 0.9 1.7 0.00 0.00 0.00 67 1003.7
20260505073730 64 242 0.9 1.7 0.00 0.00 0.00 67 1003.7
20260505073450 64 242 0.9 1.7 0.00 0.00 0.00 67 1003.7
20260505072728 64 242 0.9 1.7 0.00 0.00 0.00 67 1003.7
20260505072229 64 242 0.9 0.9 0.00 0.00 0.00 67 1003.6
20260505071729 64 242 0.9 1.7 0.00 0.00 0.00 67 1003.5
20260505071230 64 242 0.0 1.7 0.00 0.00 0.00 67 1003.4
20260505070728 64 242 0.0 1.7 0.00 0.00 0.00 67 1003.4
20260505070443 64 242 0.0 1.7 0.00 0.00 0.00 67 1003.4
20260505065722 64 242 0.0 2.6 0.00 0.00 0.00 67 1003.4
20260505065224 65 242 0.9 6.1 0.00 0.00 0.00 66 1003.3
20260505064723 64 266 0.9 7.8 0.00 0.00 0.00 66 1003.4
20260505064222 64 235 1.7 7.8 0.00 0.00 0.00 66 1003.3
20260505063951 65 244 1.7 4.3 0.00 0.00 0.00 66 1003.1
20260505063708 65 230 1.7 3.5 0.00 0.00 0.00 66 1003.1
20260505062711 65 230 1.7 7.0 0.00 0.00 0.00 66 1003.0
20260505062203 65 230 2.6 7.0 0.00 0.00 0.00 65 1003.0
20260505061657 65 243 1.7 5.2 0.00 0.00 0.00 65 1003.0
20260505061151 65 252 1.7 5.2 0.00 0.00 0.00 65 1003.0
20260505060645 65 225 1.7 5.2 0.00 0.00 0.00 65 1003.1
20260505060146 65 247 1.7 7.0 0.00 0.00 0.00 65 1003.0
20260505055647 65 225 1.7 7.0 0.00 0.00 0.00 65 1003.0
20260505055404 65 244 1.7 13.0 0.00 0.00 0.00 65 1002.9
20260505054643 65 209 1.7 13.0 0.00 0.00 0.00 65 1002.7
20260505054144 65 234 1.7 4.3 0.00 0.00 0.00 66 1002.4
20260505053644 65 239 1.7 7.8 0.00 0.00 0.00 66 1002.4
20260505053142 65 245 1.7 7.8 0.00 0.00 0.00 66 1002.3
20260505052640 65 219 1.7 8.7 0.00 0.00 0.00 66 1002.3
20260505052140 65 262 1.7 8.7 0.00 0.00 0.00 66 1002.3
20260505051640 65 267 1.7 7.8 0.00 0.00 0.00 66 1002.2
20260505051136 65 227 1.7 7.0 0.00 0.00 0.00 66 1002.3
20260505050634 65 241 1.7 7.0 0.00 0.00 0.00 66 1002.2
20260505050137 65 239 2.6 7.8 0.00 0.00 0.00 66 1002.2
20260505041611 65 249 0.9 4.3 0.00 0.00 0.00 67 1002.9
20260505041104 65 264 0.9 4.3 0.00 0.00 0.00 66 1003.0
20260505040605 65 242 0.9 4.3 0.00 0.00 0.00 66 1002.9
20260505040039 66 232 1.7 3.5 0.00 0.00 0.00 66 1003.0
20260505035050 66 267 1.7 3.5 0.00 0.00 0.00 66 1003.0
20260505034545 66 244 1.7 9.6 0.00 0.00 0.00 66 1003.0
20260505034531 66 248 1.7 9.6 0.00 0.00 0.00 66 1003.0
20260505033532 67 202 1.7 6.1 0.00 0.00 0.00 65 1003.1
20260505033027 67 246 1.7 3.5 0.00 0.00 0.00 65 1003.1
20260505032746 66 203 0.9 6.1 0.00 0.00 0.00 65 1003.1
20260505032017 67 260 1.7 6.1 0.00 0.00 0.00 66 1003.1
20260505031509 67 249 1.7 6.1 0.00 0.00 0.00 65 1003.0
20260505031003 67 237 0.9 3.5 0.00 0.00 0.00 65 1003.0
20260505030456 67 260 0.9 6.1 0.00 0.00 0.00 65 1003.0
20260505025951 67 260 1.7 6.1 0.00 0.00 0.00 65 1003.0
20260505025444 67 253 0.9 4.3 0.00 0.00 0.00 65 1003.0
20260505024939 67 247 0.9 4.3 0.00 0.00 0.00 65 1002.9
20260505024433 66 247 0.9 3.5 0.00 0.00 0.00 65 1002.8
20260505023926 66 204 0.9 3.5 0.00 0.00 0.00 66 1002.8
20260505023642 66 268 0.9 1.7 0.00 0.00 0.00 65 1002.7
20260505022915 67 268 0.9 1.7 0.00 0.00 0.00 65 1002.6
20260505022409 67 268 0.9 1.7 0.00 0.00 0.00 65 1002.6
20260505022122 67 268 0.9 2.6 0.00 0.00 0.00 65 1002.4
20260505021630 67 268 0.9 2.6 0.00 0.00 0.00 64 1002.3
20260505020850 67 268 0.9 3.5 0.00 0.00 0.00 64 1002.2
20260505020346 67 249 0.9 3.5 0.00 0.00 0.00 64 1002.1
20260505015839 67 221 0.9 3.5 0.00 0.00 0.00 64 1002.0
20260505015333 67 258 0.9 5.2 0.00 0.00 0.00 63 1001.9
20260505015046 67 227 0.9 5.2 0.00 0.00 0.00 63 1001.8
20260505014320 68 253 0.9 2.6 0.00 0.00 0.00 63 1001.8
20260505013817 68 253 0.9 6.1 0.00 0.00 0.00 62 1001.7
20260505013308 68 253 0.9 6.1 0.00 0.00 0.00 62 1001.7
20260505013023 69 218 0.9 5.2 0.00 0.00 0.00 62 1001.7
20260505012257 69 5 0.9 5.2 0.00 0.00 0.00 61 1001.6
20260505011750 69 242 0.9 3.5 0.00 0.00 0.00 61 1001.7
20260505011245 69 244 1.7 5.2 0.00 0.00 0.00 61 1001.6
20260505010739 69 261 1.7 5.2 0.00 0.00 0.00 61 1001.6
20260505010232 69 255 1.7 6.1 0.00 0.00 0.00 60 1001.6
20260505005728 70 247 1.7 6.1 0.00 0.00 0.00 61 1001.6
20260505005222 70 218 1.7 4.3 0.00 0.00 0.00 61 1001.6
20260505004715 70 266 0.9 4.3 0.00 0.00 0.00 61 1001.6
20260505004433 70 218 0.9 7.0 0.00 0.00 0.00 61 1001.6
20260505003928 70 243 1.7 8.7 0.00 0.00 0.00 60 1001.6
20260505003157 70 268 1.7 8.7 0.00 0.00 0.00 60 1001.7
20260505002651 71 244 1.7 6.1 0.00 0.00 0.00 60 1001.6
20260505002623 71 118 1.7 3.5 0.00 0.00 0.00 59 1001.5
20260505002127 71 247 0.9 7.0 0.00 0.00 0.00 60 1001.6
20260505001354 71 229 1.7 10.4 0.00 0.00 0.00 58 1001.6
20260505000627 72 259 1.7 10.4 0.00 0.00 0.00 57 1001.7
20260505000121 72 262 1.7 5.2 0.00 0.00 0.00 56 1001.8
20260504235615 72 222 1.7 6.1 0.00 0.00 0.00 57 1001.7
20260504235335 73 246 1.7 6.1 0.00 0.00 0.00 56 1001.7
20260504234603 73 151 1.7 5.2 0.00 0.00 0.00 55 1001.8
20260504234057 73 256 1.7 4.3 0.00 0.00 0.00 55 1002.0
20260504233550 74 246 2.6 10.4 0.00 0.00 0.00 54 1002.1
20260504233045 74 261 2.6 10.4 0.00 0.00 0.00 53 1002.2
20260504232538 74 154 2.6 7.8 0.00 0.00 0.00 52 1002.1
20260504232033 74 90 3.5 7.8 0.00 0.00 0.00 52 1002.3
20260504231527 74 229 3.5 10.4 0.00 0.00 0.00 51 1002.3
20260504231022 74 233 3.5 10.4 0.00 0.00 0.00 51 1002.6
20260504230515 74 249 3.5 10.4 0.00 0.00 0.00 51 1002.6
20260504230008 75 145 4.3 11.3 0.00 0.00 0.00 50 1002.4
20260504225503 75 268 3.5 11.3 0.00 0.00 0.00 49 1002.3
20260504225220 76 240 2.6 10.4 0.00 0.00 0.00 50 1002.4
20260504224451 76 244 2.6 10.4 0.00 0.00 0.00 48 1002.6
20260504223944 76 193 2.6 10.4 0.00 0.00 0.00 48 1002.7
20260504223439 75 223 2.6 8.7 0.00 0.00 0.00 48 1002.6
20260504222939 75 256 2.6 8.7 0.00 0.00 0.00 53 1002.7
20260504222439 75 227 0.9 6.1 0.00 0.00 0.00 57 1002.9
20260504221939 75 327 0.9 3.5 0.00 0.00 0.00 58 1002.8
20260504221437 75 244 0.9 3.5 0.00 0.00 0.00 57 1002.8
20260504220936 74 251 0.9 3.5 0.00 0.00 0.00 59 1002.8
20260504220436 74 252 0.9 5.2 0.00 0.00 0.00 56 1002.8
20260504215933 75 247 0.9 6.1 0.00 0.00 0.00 57 1002.9
20260504215434 75 300 0.9 6.1 0.00 0.00 0.00 55 1002.8
20260504214934 75 240 0.9 6.1 0.00 0.00 0.00 56 1002.8
20260504214704 75 290 0.9 6.1 0.00 0.00 0.00 56 1002.8
20260504213934 75 232 0.9 2.6 0.00 0.00 0.00 53 1002.8
20260504213432 75 232 1.7 5.2 0.00 0.00 0.00 53 1002.9
20260504212930 75 232 1.7 5.2 0.00 0.00 0.00 52 1003.2
20260504212429 75 147 1.7 7.0 0.00 0.00 0.00 51 1003.4
20260504211931 76 216 1.7 7.0 0.00 0.00 0.00 52 1003.4
20260504211425 76 175 2.6 5.2 0.00 0.00 0.00 50 1003.5
20260504210927 77 214 1.7 5.2 0.00 0.00 0.00 50 1003.6
20260504210426 77 228 0.9 4.3 0.00 0.00 0.00 50 1003.6
20260504205925 77 226 0.9 4.3 0.00 0.00 0.00 52 1003.7
20260504205426 76 265 1.7 4.3 0.00 0.00 0.00 50 1003.8
20260504205136 76 225 1.7 7.0 0.00 0.00 0.00 51 1003.9
20260504205023 76 136 1.7 7.0 0.00 0.00 0.00 50 1003.9
20260504203925 76 237 1.7 7.0 0.00 0.00 0.00 51 1003.9
20260504203646 76 218 2.6 7.0 0.00 0.00 0.00 52 1003.9
20260504203146 76 225 3.5 10.4 0.00 0.00 0.00 51 1004.0
20260504202422 76 231 3.5 10.4 0.00 0.00 0.00 52 1004.0
20260504201923 76 234 2.6 10.4 0.00 0.00 0.00 52 1004.2
20260504201421 76 128 1.7 5.2 0.00 0.00 0.00 56 1004.4
20260504200922 75 210 2.6 7.0 0.00 0.00 0.00 56 1004.3
20260504200421 74 191 3.5 12.2 0.00 0.00 0.00 55 1004.3
20260504200412 74 189 2.6 12.2 0.00 0.00 0.00 55 1004.5
20260504195422 75 260 1.7 6.1 0.00 0.00 0.00 56 1004.5
20260504194922 75 209 2.6 6.1 0.00 0.00 0.00 56 1004.6
20260504194419 75 203 3.5 6.1 0.00 0.00 0.00 55 1004.5
20260504193915 76 204 2.6 6.1 0.00 0.00 0.00 54 1004.5
20260504193642 75 148 1.7 7.0 0.00 0.00 0.00 57 1004.6
20260504192916 74 249 1.7 7.0 0.00 0.00 0.00 57 1004.7
20260504192415 73 213 2.6 7.8 0.00 0.00 0.00 59 1004.8
20260504191916 72 196 2.6 7.8 0.00 0.00 0.00 60 1005.0
20260504191902 71 214 0.9 5.2 0.00 0.00 0.00 62 1005.0
20260504190915 70 244 0.9 2.6 0.00 0.00 0.00 65 1005.2
20260504190415 69 244 0.9 3.5 0.00 0.00 0.00 66 1005.3
20260504185915 69 83 0.9 3.5 0.00 0.00 0.00 64 1004.8
20260504185638 69 254 0.9 4.3 0.00 0.00 0.00 65 1005.5
20260504184904 68 226 1.7 4.3 0.00 0.00 0.00 65 1005.5
20260504184358 68 233 0.9 2.6 0.00 0.00 0.00 66 1005.5
20260504184113 69 233 0.9 5.2 0.00 0.00 0.00 65 1005.6
20260504183347 69 233 1.7 6.1 0.00 0.00 0.00 64 1005.6
20260504182840 69 244 1.7 6.1 0.00 0.00 0.00 64 1005.8
20260504182334 69 240 1.7 6.1 0.00 0.00 0.00 63 1005.5
20260504181828 69 226 1.7 7.0 0.00 0.00 0.00 64 1005.5
20260504181322 69 298 2.6 7.0 0.00 0.00 0.00 63 1005.4
20260504180817 70 208 1.7 6.1 0.00 0.00 0.00 62 1005.6
20260504180310 70 239 2.6 10.4 0.00 0.00 0.00 62 1005.4
20260504175804 70 230 3.5 15.6 0.00 0.00 0.00 61 1005.2
20260504175258 70 219 4.3 15.6 0.00 0.00 0.00 60 1005.1
20260504174752 71 230 4.3 15.6 0.00 0.00 0.00 59 1005.0
20260504174246 71 218 3.5 15.6 0.00 0.00 0.00 59 1005.0
20260504173740 72 210 4.3 10.4 0.00 0.00 0.00 57 1004.8
20260504173233 73 233 3.5 10.4 0.00 0.00 0.00 58 1004.7
20260504172726 73 229 2.6 10.4 0.00 0.00 0.00 59 1004.7
20260504172219 73 233 2.6 9.6 0.00 0.00 0.00 58 1004.7
20260504171719 73 227 3.5 13.0 0.00 0.00 0.00 59 1004.7
20260504171221 72 258 2.6 13.0 0.00 0.00 0.00 59 1004.8
20260504170721 71 234 1.7 7.8 0.00 0.00 0.00 62 1004.7
20260504170220 71 256 1.7 5.2 0.00 0.00 0.00 62 1004.9
20260504151115 66 166 0.9 6.1 0.00 0.00 0.00 67 1005.7
20260504150610 65 245 0.9 7.0 0.00 0.00 0.00 67 1005.7
20260504150553 64 223 0.9 4.3 0.00 0.00 0.00 68 1005.7
20260504141004 60 261 1.7 5.2 0.00 0.00 0.00 71 1005.6
20260504140458 60 251 1.7 6.1 0.00 0.00 0.00 70 1005.7
20260504140216 61 254 2.6 6.1 0.00 0.00 0.00 70 1005.7
20260504130346 55 251 1.7 4.3 0.00 0.00 0.00 78 1006.1
20260504120234 52 260 1.7 4.3 0.00 0.00 0.00 78 1006.2
20260504110203 51 244 1.7 4.3 0.00 0.00 0.00 75 1006.2